Weather History for KCEC - November, 2012

Change the Weather History Date:

Saturday, November 17, 2012

  Actual Average Record
Temperature  
Mean Temperature 53 °F 50 °F  
Max Temperature 58 °F 56 °F 73 °F (1949)
Min Temperature 47 °F 44 °F 31 °F (2000)
Degree Days  
Heating Degree Days 12 15  
Month to date heating degree days 204 240  
Since 1 July heating degree days 1351 1404  
Cooling Degree Days 0 0  
Month to date cooling degree days 0 0  
Year to date cooling degree days 0 0  
Growing Degree Days 2 (Base 50)    
Moisture  
Dew Point 49 °F    
Average Humidity 89    
Maximum Humidity 100    
Minimum Humidity 77    
Precipitation  
Precipitation 1.39 in 0.34 in 1.66 in (1960)
Month to date precipitation 3.06 5.40  
Year to date precipitation 53.73 48.43  
Since 1 July precipitation 10.35 11.50  
Snow  
Snow 0.00 in - - ()
Month to date snowfall 0.0  
Since 1 July snowfall 0.0  
Since 1 September snowfall 0.0  
Snow Depth 0.00 in    
Sea Level Pressure  
Sea Level Pressure 29.78 in    
Wind  
Wind Speed 11 mph (SSE)    
Max Wind Speed 25 mph    
Max Gust Speed 36 mph    
Visibility 6 miles    
Events Fog , Rain    
T = Trace of Precipitation, MM = Missing Value Source: NWS Daily Summary

Daily Weather History Graph

Daily Weather History Graph

Search for Another Location

Airport or City:

Trip Planner

Search our weather history database for the weather conditions in past years. The results will help you decide how hot, cold, wet, or windy it might be!

Date:

Astronomy

Nov. 17, 2012 Rise Set
Actual Time 7:09 AM PST 4:54 PM PST
Civil Twilight 6:39 AM PST 5:24 PM PST
Nautical Twilight 6:05 AM PST 5:58 PM PST
Astronomical Twilight 5:32 AM PST 6:31 PM PST
Moon 10:58 AM PST (11/17) 9:11 PM PST (11/17)
Length of Visible Light 10h 44m
Length of Day
9h 44m
Waxing Crescent, 21% of the Moon is Illuminated
Nov 17
Waxing Crescent
Nov 20
First Quarter
Nov 28
Full
Dec 6
Last Quarter
Dec 13
New

Hourly Weather History & Observations

Time (PST) Temp. Dew Point Humidity Pressure Visibility Wind Dir Wind Speed Gust Speed Precip Events Conditions
12:44 AM 53.6 °F 51.8 °F 94% 29.77 in 7.0 mi South 5.8 mph - 0.02 in Rain Light Rain
12:56 AM 54.0 °F 52.0 °F 93% 29.77 in 3.0 mi SSE 6.9 mph - 0.04 in Rain Rain
1:56 AM 54.0 °F 52.0 °F 93% 29.74 in 10.0 mi SSE 9.2 mph - 0.03 in   Overcast
2:56 AM 57.0 °F 50.0 °F 77% 29.72 in 10.0 mi SSE 13.8 mph - N/A   Overcast
3:56 AM 57.0 °F 48.9 °F 74% 29.71 in 10.0 mi SSE 16.1 mph 21.9 mph 0.00 in Rain Light Rain
4:56 AM 55.0 °F 52.0 °F 89% 29.70 in 5.0 mi SSE 15.0 mph - 0.03 in Rain Heavy Rain
5:15 AM 53.6 °F 51.8 °F 94% 29.70 in 10.0 mi South 12.7 mph - 0.02 in Rain Light Rain
5:52 AM 53.6 °F 51.8 °F 94% 29.71 in 2.0 mi South 11.5 mph - 0.09 in Rain Heavy Rain
5:56 AM 54.0 °F 52.0 °F 93% 29.71 in 2.5 mi South 12.7 mph - 0.11 in Rain Rain
6:05 AM 53.6 °F 51.8 °F 94% 29.71 in 3.0 mi South 16.1 mph - 0.04 in Rain Rain
6:17 AM 53.6 °F 51.8 °F 94% 29.71 in 2.5 mi South 13.8 mph - 0.07 in Rain Rain
6:28 AM 53.6 °F 53.6 °F 100% 29.71 in 2.0 mi South 13.8 mph - 0.11 in Rain Rain
6:40 AM 55.4 °F 53.6 °F 94% 29.72 in 2.5 mi South 18.4 mph 23.0 mph 0.14 in Rain Rain
6:48 AM 53.6 °F 53.6 °F 100% 29.71 in 3.0 mi SSW 12.7 mph 23.0 mph 0.17 in Rain Rain
6:56 AM 54.0 °F 53.1 °F 97% 29.72 in 3.0 mi South 13.8 mph - 0.18 in Rain Rain
7:04 AM 53.6 °F 53.6 °F 100% 29.71 in 2.5 mi South 15.0 mph 23.0 mph 0.02 in Rain Rain
7:18 AM 53.6 °F 53.6 °F 100% 29.72 in 3.0 mi SSW 12.7 mph - 0.03 in Rain Light Rain
7:44 AM 53.6 °F 51.8 °F 94% 29.72 in 5.0 mi South 15.0 mph - 0.04 in Rain Light Rain
7:56 AM 54.0 °F 53.1 °F 97% 29.73 in 9.0 mi South 13.8 mph - 0.04 in   Overcast
9:24 AM 55.4 °F 53.6 °F 94% 29.74 in 10.0 mi SE 11.5 mph - N/A   Overcast
9:56 AM 55.0 °F 53.1 °F 93% 29.74 in 10.0 mi SSE 16.1 mph - N/A   Overcast
10:23 AM 55.4 °F 53.6 °F 94% 29.73 in 10.0 mi SE 18.4 mph 25.3 mph N/A   Overcast
10:30 AM 55.4 °F 53.6 °F 94% 29.72 in 10.0 mi SE 20.7 mph 26.5 mph N/A   Overcast
10:56 AM 55.0 °F 53.1 °F 93% 29.72 in 10.0 mi SSE 20.7 mph 31.1 mph N/A   Overcast
11:16 AM 51.8 °F 48.2 °F 88% 29.76 in 1.5 mi West 25.3 mph 35.7 mph 0.02 in Rain Heavy Rain
11:18 AM 50.0 °F 48.2 °F 94% 29.76 in 0.8 mi WNW 20.7 mph 35.7 mph 0.03 in Rain Heavy Rain
11:24 AM 50.0 °F 46.4 °F 87% 29.76 in 0.5 mi WNW 18.4 mph 33.4 mph 0.06 in Fog , Rain Heavy Rain
11:29 AM 50.0 °F 48.2 °F 94% 29.76 in 1.2 mi WNW 16.1 mph 27.6 mph 0.08 in Rain Heavy Rain
11:35 AM 50.0 °F 48.2 °F 94% 29.76 in 2.0 mi NW 16.1 mph 23.0 mph 0.11 in Rain Rain
11:56 AM 50.0 °F 48.0 °F 93% 29.77 in 2.0 mi NW 12.7 mph 21.9 mph 0.19 in Rain Rain
12:08 PM 50.0 °F 48.2 °F 94% 29.77 in 2.0 mi NW 11.5 mph 20.7 mph 0.04 in Rain Heavy Rain
12:16 PM 50.0 °F 48.2 °F 94% 29.77 in 2.5 mi NNW 9.2 mph - 0.06 in Rain Rain
12:44 PM 48.2 °F 48.2 °F 100% 29.79 in 2.5 mi NNW 11.5 mph 18.4 mph 0.15 in Rain Heavy Rain
12:56 PM 48.9 °F 46.9 °F 93% 29.80 in 2.5 mi NNW 11.5 mph - 0.19 in Rain Heavy Rain
1:09 PM 48.2 °F 46.4 °F 93% 29.81 in 1.8 mi NNW 10.4 mph - 0.04 in Rain Heavy Rain
1:11 PM 48.2 °F 46.4 °F 93% 29.81 in 2.0 mi NNW 10.4 mph - 0.04 in Rain Heavy Rain
1:32 PM 48.2 °F 46.4 °F 93% 29.81 in 2.0 mi Variable 4.6 mph - 0.11 in Rain Heavy Rain
1:46 PM 48.2 °F 44.6 °F 87% 29.81 in 4.0 mi East 12.7 mph 51.8 mph 0.15 in Rain Rain
1:56 PM 48.0 °F 45.0 °F 89% 29.81 in 4.0 mi East 6.9 mph - 0.18 in Rain Rain
2:56 PM 48.0 °F 46.0 °F 93% 29.83 in 10.0 mi SE 5.8 mph - 0.16 in Rain Light Rain
3:56 PM 48.9 °F 46.0 °F 90% 29.85 in 9.0 mi East 8.1 mph - 0.11 in Rain Light Rain
4:56 PM 48.0 °F 45.0 °F 89% 29.86 in 10.0 mi SE 5.8 mph - 0.02 in Rain Light Rain
5:56 PM 48.0 °F 44.1 °F 86% 29.88 in 7.0 mi SSE 9.2 mph - 0.04 in Rain Light Rain
6:56 PM 46.9 °F 44.1 °F 90% 29.90 in 10.0 mi SE 10.4 mph - 0.05 in   Mostly Cloudy
7:56 PM 48.0 °F 45.0 °F 89% 29.91 in 10.0 mi ESE 6.9 mph - 0.01 in Rain Light Rain
8:56 PM 46.9 °F 44.1 °F 90% 29.93 in 10.0 mi East 3.5 mph - 0.01 in   Overcast
9:56 PM 48.9 °F 45.0 °F 86% 29.94 in 10.0 mi SE 10.4 mph - 0.00 in Rain Light Rain
10:56 PM 50.0 °F 44.1 °F 80% 29.94 in 10.0 mi SSE 15.0 mph - 0.00 in   Overcast
11:56 PM 50.0 °F 44.1 °F 80% 29.96 in 10.0 mi SE 16.1 mph - N/A   Overcast